TimeCDT,TemperatureF,Dew PointF,Humidity,Sea Level PressureIn,VisibilityMPH,Wind Direction,Wind SpeedMPH,Gust SpeedMPH,PrecipitationIn,Events,Conditions,WindDirDegrees,DateUTC
12:53 AM,43.0,39.0,86,29.75,10.0,North,18.4,31.1,N/A,,Overcast,360,2012-10-25 05:53:00
1:43 AM,42.8,39.2,87,29.73,10.0,North,16.1,27.6,0.00,Rain-Thunderstorm,Light Thunderstorms and Rain,360,2012-10-25 06:43:00
1:53 AM,43.0,39.0,86,29.74,6.0,North,21.9,31.1,0.01,Rain-Thunderstorm,Thunderstorms and Rain,360,2012-10-25 06:53:00
2:26 AM,41.0,37.4,87,29.75,4.0,North,18.4,28.8,0.10,Rain-Thunderstorm,Rain,10,2012-10-25 07:26:00
2:49 AM,41.0,39.2,93,29.77,4.0,NNW,10.4,25.3,0.15,Rain,Rain,340,2012-10-25 07:49:00
2:53 AM,41.0,39.0,93,29.81,5.0,NNW,16.1,23.0,0.16,Rain-Thunderstorm,Rain,330,2012-10-25 07:53:00
3:06 AM,41.0,37.4,87,29.76,2.5,North,16.1,24.2,0.10,Rain-Thunderstorm,Heavy Rain,360,2012-10-25 08:06:00
3:15 AM,39.2,37.4,93,29.75,3.0,North,20.7,26.5,0.14,Rain-Thunderstorm,Heavy Thunderstorms and Rain,10,2012-10-25 08:15:00
3:31 AM,39.2,37.4,93,29.73,3.0,North,12.7,23.0,0.21,Rain,Heavy Rain,360,2012-10-25 08:31:00
3:53 AM,39.0,37.0,93,29.74,3.0,North,19.6,26.5,0.34,Rain,Heavy Rain,350,2012-10-25 08:53:00
4:53 AM,37.9,36.0,93,29.74,5.0,North,32.2,39.1,0.17,Rain,Rain,350,2012-10-25 09:53:00
5:53 AM,37.0,34.0,89,29.81,7.0,NNW,21.9,35.7,0.06,Rain,Light Rain,340,2012-10-25 10:53:00
9:04 AM,33.8,30.2,87,29.87,1.8,NNW,24.2,38.0,0.00,Snow,Light Snow,330,2012-10-25 14:04:00
9:38 AM,33.8,30.2,87,29.89,1.8,NNW,25.3,36.8,0.01,Snow,Light Snow,330,2012-10-25 14:38:00
9:53 AM,34.0,30.9,89,29.94,5.0,NNW,28.8,38.0,0.01,Rain,Light Rain,330,2012-10-25 14:53:00
10:42 AM,33.8,30.2,87,29.93,5.0,NNW,27.6,36.8,0.00,Rain,Light Rain,330,2012-10-25 15:42:00
10:53 AM,34.0,30.9,89,29.97,7.0,NNW,27.6,38.0,0.00,Rain,Light Rain,330,2012-10-25 15:53:00
11:19 AM,33.8,30.2,87,29.96,5.0,NNW,24.2,36.8,0.00,Rain,Light Rain,330,2012-10-25 16:19:00
11:51 AM,35.6,30.2,81,29.97,9.0,NNW,24.2,33.4,0.00,Snow,Light Snow,330,2012-10-25 16:51:00
11:53 AM,35.1,30.9,85,30.01,8.0,NNW,21.9,33.4,0.00,Snow,Light Snow,330,2012-10-25 16:53:00
12:07 PM,35.6,30.2,81,29.98,4.0,NNW,23.0,31.1,0.00,Snow,Light Snow,330,2012-10-25 17:07:00
12:14 PM,35.6,30.2,81,29.98,2.5,NNW,21.9,31.1,0.00,Snow,Light Snow,330,2012-10-25 17:14:00
12:27 PM,35.6,30.2,81,29.99,4.0,NNW,26.5,33.4,0.00,Snow,Light Snow,330,2012-10-25 17:27:00
12:37 PM,35.6,30.2,81,29.99,9.0,NW,24.2,34.5,0.00,Snow,Light Snow,320,2012-10-25 17:37:00
12:53 PM,36.0,30.0,79,30.02,10.0,NNW,25.3,33.4,0.00,,Overcast,330,2012-10-25 17:53:00
1:53 PM,37.0,28.9,73,30.04,10.0,NW,21.9,36.8,0.00,,Mostly Cloudy,320,2012-10-25 18:53:00
2:53 PM,37.9,28.9,70,30.06,10.0,NW,20.7,33.4,N/A,,Overcast,320,2012-10-25 19:53:00
3:53 PM,37.0,28.0,70,30.10,10.0,NW,20.7,29.9,N/A,,Overcast,320,2012-10-25 20:53:00
4:53 PM,37.0,28.0,70,30.14,10.0,NW,18.4,28.8,N/A,,Overcast,310,2012-10-25 21:53:00
5:53 PM,37.0,28.0,70,30.17,10.0,NW,16.1,25.3,N/A,,Overcast,320,2012-10-25 22:53:00
6:53 PM,36.0,27.0,70,30.21,10.0,NW,18.4,25.3,N/A,,Overcast,320,2012-10-25 23:53:00
7:00 PM,35.6,26.6,70,30.17,10.0,NW,17.3,25.3,N/A,,Overcast,320,2012-10-26 00:00:00
7:53 PM,36.0,28.0,73,30.24,10.0,NW,12.7,-,N/A,,Overcast,320,2012-10-26 00:53:00
8:53 PM,37.0,25.0,62,30.27,10.0,NW,13.8,27.6,N/A,,Overcast,320,2012-10-26 01:53:00
9:53 PM,37.0,27.0,67,30.28,10.0,NW,12.7,-,N/A,,Overcast,320,2012-10-26 02:53:00
10:53 PM,36.0,28.0,73,30.31,10.0,WNW,12.7,-,N/A,,Overcast,290,2012-10-26 03:53:00